Regional Weather Roundup
Issued by NWS Northern Indiana

Home | Current Version | Previous Version | Text Only | Print | Product List | Glossary Off
Versions: 1 2 3 4 5 6 7 8 9 10 11 12 13 14 15 16 17 18 19 20 21 22 23 24 25 26 27 28 29 30 31 32 33 34 35 36 37 38 39 40 41 42 43 44 45 46 47 48 49 50

000
ASUS43 KIWX 011110
RWRIWX

KIWX WEATHER ROUNDUP
NATIONAL WEATHER SERVICE NORTHERN INDIANA
700 AM EDT SUN MAY 01 2016

NOTE: "FAIR" INDICATES FEW OR NO CLOUDS BELOW 12,000 FEET WITH NO
SIGNIFICANT WEATHER AND/OR OBSTRUCTIONS TO VISIBILITY.

* THESE STATIONS ARE NOT UNDER NWS QUALITY CONTROL. THEY ALSO MAY NOT
  REPORT WEATHER SUCH AS PRECIPITATION OR FOG.

INZ001>027-011200-
NORTHERN INDIANA

CITY           SKY/WX    TMP DP  RH WIND       PRES   REMARKS
GARY*          CLOUDY    46  46 100 N12       29.93R FOG
VALPARAISO     CLOUDY    48  47  96 NE5       29.91R FOG
MICHIGAN CITY* CLOUDY    46  46 100 CALM      29.92R
LAPORTE*       CLOUDY   N/A N/A N/A NE3       29.91S FOG
KNOX*          CLOUDY    46  45  93 NE3       29.90R
SOUTH BEND     CLOUDY    48  47  96 VRB5      29.92R
GOSHEN         CLOUDY    49  47  93 NE5       29.90R FOG
MONTICELLO*    CLOUDY    50  47  87 CALM      29.88R FOG
LOGANSPORT*    FOG       50  50 100 CALM      29.89R VSB 3/4
ROCHESTER*     CLOUDY    52  52 100 CALM      29.89S FOG
WARSAW*        CLOUDY    48  48 100 E3        29.89S FOG
ANGOLA*        CLOUDY    48  46  93 E3        29.90S
FORT WAYNE     FOG       50  49  96 E5        29.91R VSB 1/2
HUNTINGTON*    FOG      N/A N/A N/A NE5       29.89R VSB 1/4
PERU/GRISSOM   CLOUDY    52  52 100 E6        29.87R FOG
MARION*        FOG       55  55 100 NE5       29.89S VSB 1/2

$$
INZ028>050-011200-
CENTRAL INDIANA

CITY           SKY/WX    TMP DP  RH WIND       PRES   REMARKS
LAFAYETTE      FOG       52  52 100 NE3       29.88R VSB 1/4
KOKOMO*        CLOUDY    54  50  87 NE6       29.88R VSB 1/2
MUNCIE*        CLOUDY    63  60  90 W5        29.88S
INDIANAPOLIS   CLOUDY    61  58  90 CALM      29.85S

$$
MIZ043>046-050>051-056>058-064>065-071>073-077>080-011200-
SOUTHWEST LOWER MICHIGAN

CITY           SKY/WX    TMP DP  RH WIND       PRES   REMARKS
BATTLE CREEK   CLOUDY    46  44  93 NE7       29.93R FOG
BENTON HARBOR  CLOUDY    49  46  90 NE6       29.92R
COLDWATER*     CLOUDY    48  48 100 NE5       29.91S FOG
HILLSDALE*     CLOUDY    47  47 100 E7        29.90S FOG
HOLLAND        CLOUDY    45  43  93 NE8       29.95R FOG
GRAND RAPIDS   DRIZZLE   46  44  93 NE7       29.95S FOG
KALAMAZOO      CLOUDY    47  44  90 NE5       29.94R FOG
STURGIS*       CLOUDY    47  47  98 NE5       29.90R FOG
THREE RIVERS*  CLOUDY    47  47  99 NE6       29.92R FOG

$$
OHZ001>008-015>018-024>025-011200-
NORTHWEST OHIO

CITY           SKY/WX    TMP DP  RH WIND       PRES   REMARKS
WAUSEON*         N/A     48  48 100 NE7       29.91R FOG
DEFIANCE       CLOUDY    50  48  93 NE5       29.91R
FINDLAY        FOG       52  48  86 N5        29.90R VSB 1/4
TOLEDO EXPRESS CLOUDY    49  48  97 NE7       29.89S FOG
TOLEDO METCALF FOG       50  48  93 NE7       29.91R VSB 1/2
LIMA           FOG       54  53  97 N7        29.90R VSB 1/2

$$
AND FOR LAKE MICHIGAN COASTAL AND OPEN LAKE BUOY OBSERVATIONS

STATION/POSITION TEMP    WIND        PRES    VSBY  WAVE
                 AIR SEA DIR/SP/G                  HT/PER
                 (F)     (DEG/KT/KT) (MB)    (MI)  (FT/S)
CALUMET HARBOR    44      10/ 11/ 15 1012.4R
MICHIGAN CITY     47      10/  9/  9   N/A
BURNS HARBOR      46      30/ 10/ 14 1013.2R
SAINT JOSEPH      49     360/  2/  3 1013.9R
SOUTH LAKE BUOY   41 40   40/ 14/ 16 1014.3R         2/ 5
4 MI NW BRIDGMAN  48 49                N/A           2/ 4

$$
&&



USA.gov is the U.S. government's official web portal to all federal, state and local government web resources and services.